Vorticity
6 6 6 7 8 6 6 2 2 3 5 5 6 7 7 7 9 8 7 6 6 5 6 6 6 6 7 6 6 6 6 6 5 5 6 6 7 7
6 7 7 8 9 5 7 2 2 3 4 5 6 6 7 6 7 7 7 6 6 5 6 5 6 6 7 7 7 6 5 5 5 5 5 6 6 7
8 8 7 8 9 6 7 2 2 4 4 5 5 7 8 9 8 7 8 7 6 5 5 5 4 4 5 6 6 6 5 5 5 5 5 5 5 6
8 8 7 8 9 8 7 4 2 3 4 4 5 6 8 8 8 7 6 6 6 6 6 5 4 4 4 5 5 6 5 5 5 4 4 4 5 6
8 8 8 8 10 9 5 5 3 2 3 3 5 6 8 10 9 8 8 6 6 6 6 5 5 4 4 4 4 5 5 5 5 5 4 4 4 5
7 10 9 7 9 9 7 4 6 2 3 3 4 5 7 8 9 8 7 8 8 6 5 4 5 5 5 5 4 5 5 5 5 6 6 5 5 4
9 8 9 8 9 10 8 7 4 3 3 2 2 5 8 9 9 10 8 8 7 6 5 4 5 4 5 5 5 4 4 5 5 4 5 5 5 5
8 7 7 9 8 9 8 7 5 4 4 2 2 4 7 5 6 9 9 8 8 6 6 5 5 4 4 4 5 5 5 5 5 5 5 4 5 6
8 7 8 7 9 7 9 8 7 5 2 2 2 1 5 6 6 7 7 8 9 8 5 5 5 6 4 5 5 5 5 5 6 5 5 5 5 5
2 6 7 7 7 8 8 9 8 6 5 2 1 2 5 6 6 7 7 7 5 9 6 8 9 5 7 4 5 4 5 5 6 6 6 6 5 5
10 10 4 6 7 7 8 8 8 8 7 6 4 3 5 4 8 7 6 6 6 7 7 7 9 8 7 5 5 5 4 5 5 6 7 6 6 6
6 10 7 8 4 8 9 8 7 7 7 8 6 2 5 2 6 3 9 7 8 8 3 9 5 4 9 6 8 7 6 6 6 6 7 7 6 6
-3 15 3 7 9 1 10 7 8 9 8 8 8 5 4 5 3 4 4 8 9 10 7 7 4 4 4 9 8 8 7 7 7 6 6 6 7 7
-21 5 -1 37 -22 13 -7 18 1 8 8 7 8 6 5 3 4 2 6 1 -1 8 4 5 6 4 6 3 5 8 8 7 7 7 6 8 8 8
45 37 21 22 11 8 22 -21 9 25 10 9 8 6 7 8 4 11 -4 2 3 -5 9 1 -7 10 -11 0 2 6 7 8 7 6 7 8 8 10
6 1 27 17 26 15 -2 9 23 24 -17 10 8 11 6 4 12 2 7 9 9 3 -2 2 10 3 11 9 -17 2 5 5 12 6 8 7 10 7
2 -1 5 15 13 17 22 34 3 17 25 15 9 9 -6 5 31 5 -2 4 10 -4 -10 -9 21 20 19 11 14 22 2 10 6 7 3 13 6 17
11 16 8 4 7 4 3 8 1 33 41 -10 28 29 20 3 -11 -3 30 20 15 1 -7 -35 -2 11 42 3 0 11 20 3 -7 17 -2 9 2 -1
9 15 19 15 8 17 17 20 15 13 12 32 20 20 43 -8 26 26 10 -2 -20 -7 1 -4 35 25 20 7 14 6 29 14 -4 -12 19 12 -2 3
6 3 9 11 9 7 7 14 16 23 19 6 5 -2 17 -1 21 20 33 33 26 27 26 43 26 -7 -18 1 28 13 25 6 26 17 13 8 4 10
13 16 7 6 5 10 15 15 15 17 22 20 12 23 22 16 3 10 1 30 26 38 19 28 -18 6 22 15 18 -2 8 20 5 -11 1 10 5 6
15 14 14 9 9 10 9 8 4 5 5 10 19 21 29 30 35 30 17 11 -1 -10 -2 40 14 6 13 12 16 8 14 15 4 1 13 9 6 7
13 12 13 13 13 10 9 11 12 14 11 6 4 -3 -6 -16 10 5 8 5 2 8 10 7 13 21 7 4 9 7 4 7 12 9 7 9 8 6
Height
3123 3128 3133 3137 3142 3144 3148 3152 3156 3160 3164 3166 3169 3171 3173 3175 3177 3178 3180 3182 3183 3183 3184 3185 3184 3184 3184 3184 3184 3184 3184 3183 3183 3182 3180 3179 3178 3176
3118 3123 3128 3132 3137 3140 3144 3149 3153 3157 3159 3162 3165 3168 3170 3172 3173 3176 3178 3179 3181 3182 3182 3183 3183 3184 3184 3184 3184 3184 3184 3183 3182 3181 3180 3178 3178 3176
3112 3117 3123 3127 3131 3135 3139 3144 3148 3152 3155 3158 3161 3164 3166 3168 3170 3172 3175 3176 3178 3179 3180 3181 3181 3182 3182 3182 3183 3183 3183 3182 3181 3180 3179 3178 3177 3176
3107 3112 3117 3121 3126 3130 3135 3139 3144 3148 3151 3153 3156 3159 3162 3164 3166 3168 3170 3172 3174 3176 3177 3178 3178 3179 3179 3180 3180 3181 3181 3180 3180 3178 3178 3177 3176 3175
3100 3105 3110 3114 3119 3125 3129 3134 3139 3143 3146 3148 3152 3155 3157 3159 3162 3164 3166 3168 3170 3172 3173 3174 3175 3176 3176 3177 3177 3177 3177 3177 3177 3177 3176 3175 3174 3173
3092 3098 3103 3107 3113 3118 3123 3128 3133 3137 3140 3142 3146 3149 3151 3154 3156 3159 3162 3163 3165 3167 3169 3170 3171 3172 3173 3173 3173 3173 3174 3174 3174 3173 3173 3172 3171 3170
3083 3089 3094 3101 3107 3112 3117 3121 3126 3129 3133 3136 3139 3142 3146 3149 3151 3154 3155 3158 3160 3161 3163 3165 3166 3167 3168 3169 3169 3169 3169 3169 3169 3169 3169 3168 3167 3166
3076 3081 3086 3092 3098 3103 3108 3113 3118 3122 3126 3130 3133 3136 3140 3143 3144 3146 3149 3151 3153 3156 3156 3158 3159 3161 3163 3164 3164 3165 3165 3164 3164 3164 3164 3163 3162 3161
3067 3072 3077 3083 3089 3093 3099 3104 3109 3113 3117 3122 3125 3129 3133 3136 3138 3140 3142 3143 3145 3146 3148 3150 3152 3155 3156 3157 3158 3158 3159 3159 3158 3158 3158 3158 3157 3155
3056 3062 3068 3074 3080 3085 3090 3094 3098 3103 3108 3112 3117 3123 3125 3128 3129 3132 3133 3134 3135 3137 3141 3143 3145 3148 3148 3150 3151 3151 3152 3152 3152 3152 3152 3151 3151 3150
3047 3053 3058 3063 3069 3076 3080 3084 3088 3092 3100 3105 3109 3114 3116 3119 3121 3122 3123 3126 3127 3132 3134 3135 3136 3139 3139 3140 3143 3144 3144 3144 3144 3144 3144 3144 3143 3143
3035 3041 3047 3053 3059 3065 3068 3072 3075 3081 3088 3094 3098 3102 3106 3108 3110 3112 3115 3116 3119 3120 3127 3127 3128 3129 3129 3131 3132 3134 3134 3135 3135 3135 3134 3134 3134 3133
3021 3028 3034 3040 3046 3053 3059 3061 3065 3074 3077 3081 3086 3090 3093 3096 3098 3103 3104 3107 3109 3112 3118 3118 3118 3119 3120 3120 3123 3124 3124 3124 3124 3124 3124 3123 3122 3123
3011 3015 3020 3024 3032 3039 3046 3051 3056 3060 3063 3067 3070 3074 3078 3081 3087 3093 3096 3097 3101 3103 3106 3106 3107 3108 3111 3110 3112 3115 3114 3113 3113 3114 3113 3113 3111 3111
2999 3003 3008 3015 3021 3026 3032 3038 3043 3048 3049 3051 3055 3059 3066 3072 3078 3082 3084 3086 3087 3091 3093 3094 3096 3099 3099 3101 3101 3102 3102 3102 3101 3101 3100 3100 3102 3102
2990 2994 2998 3003 3007 3009 3017 3023 3026 3031 3035 3037 3041 3048 3053 3058 3063 3068 3072 3074 3076 3076 3080 3080 3083 3086 3086 3088 3089 3089 3091 3089 3090 3089 3088 3087 3087 3089
2978 2983 2986 2990 2994 2998 3002 3007 3011 3015 3019 3023 3028 3030 3036 3040 3045 3052 3057 3060 3062 3064 3066 3069 3069 3072 3072 3073 3073 3075 3077 3076 3078 3077 3076 3076 3078 3076
2967 2970 2975 2979 2984 2987 2991 2994 2998 3000 3002 3008 3012 3014 3021 3026 3030 3033 3038 3043 3047 3048 3051 3054 3056 3056 3057 3058 3059 3061 3062 3063 3063 3063 3063 3064 3065 3066
2955 2958 2963 2967 2972 2975 2979 2982 2985 2988 2992 2995 2997 3001 3005 3009 3014 3018 3021 3026 3026 3030 3033 3037 3040 3040 3041 3043 3044 3048 3048 3049 3050 3050 3050 3049 3051 3053
2945 2949 2951 2956 2960 2963 2968 2970 2973 2977 2980 2982 2985 2988 2992 2995 2998 3002 3005 3009 3013 3015 3018 3020 3022 3024 3028 3031 3032 3034 3036 3036 3037 3037 3038 3037 3037 3038
2936 2939 2942 2946 2950 2953 2957 2959 2962 2965 2968 2971 2974 2976 2979 2982 2985 2989 2992 2995 2998 3000 3003 3006 3010 3014 3016 3018 3019 3021 3023 3023 3024 3025 3025 3025 3025 3025
2926 2928 2931 2935 2939 2942 2945 2949 2952 2955 2958 2961 2964 2967 2969 2971 2974 2977 2981 2983 2986 2989 2993 2995 2998 3000 3003 3004 3006 3008 3009 3011 3011 3011 3012 3011 3010 3009
2916 2919 2921 2924 2927 2931 2935 2938 2940 2943 2947 2951 2955 2958 2961 2964 2966 2968 2970 2972 2975 2977 2979 2983 2985 2986 2989 2991 2993 2993 2995 2996 2997 2998 2998 2996 2994 2992